Little Rock, AR

11:30 AM CDT on September 22, 2017 (GMT -0500)
Adams

Weather History for KLIT - February, 2014

Change the Weather History Date:

Wednesday, February 12, 2014

  Actual Average Record
Temperature  
Mean Temperature 33 °F 44 °F  
Max Temperature 42 °F 54 °F 83 °F (1962)
Min Temperature 24 °F 34 °F -12 °F (1899)
Degree Days  
Heating Degree Days 32 21  
Month to date heating degree days 417 267  
Since 1 July heating degree days 2557 2213  
Cooling Degree Days 0 0  
Month to date cooling degree days 0 0  
Year to date cooling degree days 0 1  
Moisture  
Dew Point 14 °F    
Average Humidity 52    
Maximum Humidity 78    
Minimum Humidity 37    
Precipitation  
Precipitation T in 0.12 in 3.98 in (1950)
Month to date precipitation 3.00 1.47  
Year to date precipitation 5.31 5.02  
Snow  
Snow T in 0.00 in 0.50 in (1895)
Month to date snowfall 2.5 0.6  
Since 1 July snowfall 3.6 2.4  
Snow Depth 0.00 in    
Sea Level Pressure  
Sea Level Pressure 30.14 in    
Wind  
Wind Speed 6 mph (NNW)    
Max Wind Speed 10 mph    
Max Gust Speed -    
Visibility 10 miles    
Events Snow    
T = Trace of Precipitation, MM = Missing Value Source: NWS Daily Summary

Daily Weather History Graph

Daily Weather History Graph

Search for Another Location

Airport or City:

Trip Planner

Search our weather history database for the weather conditions in past years. The results will help you decide how hot, cold, wet, or windy it might be!

Date:

Astronomy

Feb. 12, 2014 Rise Set
Actual Time 6:57 AM CST 5:49 PM CST
Civil Twilight 6:31 AM CST 6:15 PM CST
Nautical Twilight 6:01 AM CST 6:44 PM CST
Astronomical Twilight 5:32 AM CST 7:14 PM CST
Moon 4:04 PM CST (2/12) 5:12 AM CST (2/12)
Length of Visible Light 11h 43m
Length of Day
10h 51m
Waxing Gibbous, 95% of the Moon is Illuminated
Feb 12
Waxing Gibbous
Feb 14
Full
Feb 22
Last Quarter
Mar 1
New
Mar 8
First Quarter

Hourly Weather History & Observations

Time (CST) Temp. Windchill Dew Point Humidity Pressure Visibility Wind Dir Wind Speed Gust Speed Precip Events Conditions
12:53 AM 26.1 °F 18.4 °F 8.1 °F 47% 30.27 in 10.0 mi NNE 6.9 mph - N/A   Overcast
1:53 AM 26.1 °F 16.2 °F 9.0 °F 49% 30.26 in 10.0 mi North 10.4 mph - N/A   Overcast
2:53 AM 26.1 °F 17.6 °F 9.0 °F 49% 30.24 in 10.0 mi NNE 8.1 mph - N/A   Overcast
3:53 AM 26.1 °F 17.6 °F 10.0 °F 51% 30.20 in 10.0 mi NNE 8.1 mph - N/A   Overcast
4:53 AM 26.1 °F 16.8 °F 10.0 °F 51% 30.19 in 10.0 mi North 9.2 mph - N/A   Overcast
5:53 AM 27.0 °F 18.7 °F 10.0 °F 49% 30.20 in 10.0 mi North 8.1 mph - N/A   Overcast
6:53 AM 27.0 °F 19.5 °F 10.9 °F 51% 30.19 in 10.0 mi North 6.9 mph - N/A   Overcast
7:53 AM 27.0 °F 17.3 °F 10.9 °F 51% 30.21 in 10.0 mi North 10.4 mph - N/A   Overcast
8:53 AM 28.0 °F 20.8 °F 12.9 °F 53% 30.20 in 10.0 mi NNE 6.9 mph - 0.00 in Snow Light Snow
9:53 AM 30.0 °F 22.4 °F 12.9 °F 49% 30.20 in 10.0 mi NNW 8.1 mph - 0.00 in   Overcast
10:53 AM 30.9 °F 25.2 °F 12.9 °F 47% 30.21 in 10.0 mi NNW 5.8 mph - N/A   Overcast
11:53 AM 34.0 °F 27.2 °F 12.9 °F 42% 30.16 in 10.0 mi WNW 8.1 mph - N/A   Overcast
12:53 PM 35.1 °F 30.1 °F 12.9 °F 40% 30.12 in 10.0 mi WNW 5.8 mph - N/A   Overcast
1:53 PM 36.0 °F 30.3 °F 14.0 °F 41% 30.07 in 10.0 mi WNW 6.9 mph - N/A   Overcast
2:53 PM 39.0 °F 34.0 °F 15.1 °F 38% 30.05 in 10.0 mi NW 6.9 mph - N/A   Mostly Cloudy
3:53 PM 39.9 °F 35.1 °F 17.1 °F 40% 30.05 in 10.0 mi WNW 6.9 mph - N/A   Mostly Cloudy
4:53 PM 42.1 °F - 17.1 °F 37% 30.04 in 10.0 mi Calm Calm - N/A   Mostly Cloudy
5:53 PM 39.9 °F - 18.0 °F 41% 30.05 in 10.0 mi Calm Calm - N/A   Mostly Cloudy
6:53 PM 33.1 °F 30.0 °F 19.9 °F 59% 30.06 in 10.0 mi Variable 3.5 mph - N/A   Scattered Clouds
7:53 PM 30.9 °F - 21.0 °F 67% 30.07 in 10.0 mi Calm Calm - N/A   Partly Cloudy
8:53 PM 30.9 °F - 19.9 °F 64% 30.07 in 10.0 mi Calm Calm - N/A   Partly Cloudy
9:53 PM 28.0 °F - 21.0 °F 75% 30.07 in 10.0 mi Calm Calm - N/A   Clear
10:53 PM 28.0 °F - 19.9 °F 72% 30.07 in 10.0 mi Calm Calm - N/A   Clear
11:53 PM 27.0 °F - 21.0 °F 78% 30.06 in 10.0 mi Calm Calm - N/A   Clear